Regional Weather Roundup
Issued by NWS Sioux Falls, SD

Home | Current Version | Previous Version | Text Only | Print | Product List | Glossary On
Versions: 1 2 3 4 5 6 7 8 9 10 11 12 13 14 15 16 17 18 19 20 21 22 23 24 25 26 27 28 29 30 31 32 33 34 35 36 37 38 39 40 41 42 43 44 45 46 47 48 49 50
000
ASUS43 KFSD 241210
RWRFSD

WEATHER ROUNDUP FOR SE SOUTH DAKOTA/SW MINNESOTA/NW IOWA
NATIONAL WEATHER SERVICE SIOUX FALLS SD
700 AM CDT SUN SEP 24 2017

NOTE: "FAIR" INDICATES FEW OR NO CLOUDS BELOW 12,000 FEET WITH NO
SIGNIFICANT WEATHER AND OR OBSTRUCTIONS TO VISIBILITY.


SDZ038>040-050-052>070-241300-
SOUTHEAST SOUTH DAKOTA

CITY           SKY/WX    TMP DP  RH WIND       PRES   REMARKS
BROOKINGS      CLOUDY    64  62  93 S10       29.87R
CHAMBERLAIN    RAIN      54  54 100 NW8       29.87F
6HR MIN TEMP:  54; 6HR MAX TEMP:  55; 6HR PCP:  0.03;

HURON          LGT RAIN  57  56  96 S6        29.85R
6HR MIN TEMP:  54; 6HR MAX TEMP:  57; 6HR PCP:  0.65;

MADISON        FAIR      57  57 100 SW5       29.88R
MITCHELL       FOG       57  57 100 CALM      29.85F VSB 1/2
6HR MIN TEMP:  57; 6HR MAX TEMP:  62; 6HR PCP: TRACE;

SIOUX FALLS    PTCLDY    70  65  84 S12       29.87R
6HR MIN TEMP:  59; 6HR MAX TEMP:  70;

WINNER         LGT RAIN  53  51  93 NW6       29.89R
YANKTON        CLOUDY    56  56 100 NE3       29.87S FOG
$$

MNZ071-072-080-081-089-090-097-098-241300-
SOUTHWEST MINNESOTA

CITY           SKY/WX    TMP DP  RH WIND       PRES   REMARKS
FAIRMONT       CLEAR     65  63  93 S6        29.95R
JACKSON        CLEAR     64  61  88 CALM      29.95R
LUVERNE        PTCLDY    64  61  88 S7        29.90R
MARSHALL       PTCLDY    57  57 100 SE9       29.88S
6HR MIN TEMP:  57; 6HR MAX TEMP:  58; 6HR PCP:  0.03;

MONTEVIDEO     CLOUDY    61  61 100 S6        29.88R
PIPESTONE      PTCLDY    70  64  83 S9        29.89S
REDWOOD FALLS  PTCLDY    59  58  96 SE6       29.90R
TRACY          PTCLDY    62  63 100 S8        29.90R
WORTHINGTON    CLEAR     67  63  87 SE8       29.93R
$$

IAZ001>003-012>014-020>022-031-032-NEZ013-014-SDZ071-241300-
NORTHWEST IOWA

CITY           SKY/WX    TMP DP  RH WIND       PRES   REMARKS
CHEROKEE       CLEAR     65  65  98 S3        29.93S
DENISON        CLEAR     70  64  83 S10       29.95S
ESTHERVILLE    CLEAR     65  64  97 S8        29.94S
LE MARS        CLOUDY    68  64  88 S7        29.90S
ORANGE CITY    CLEAR     68  66  94 S7        29.91S
SHELDON        CLEAR     68  64  88 S9G15     29.90S
SIOUX CITY     PTCLDY    64  64 100 SE7       29.89S
6HR MIN TEMP:  59; 6HR MAX TEMP:  65;

SPENCER        CLEAR     66  64  93 SE7       29.94R
6HR MIN TEMP:  65; 6HR MAX TEMP:  70;

STORM LAKE     CLEAR     64  63  94 SE7       29.95S
$$

ABBREVIATIONS USED IN REMARKS
   TC - TEMPERATURE IN CELSIUS
  WCI - WIND CHILL INDEX
   HX - HEAT INDEX
  VSB - VISIBILITY




USA.gov is the U.S. government's official web portal to all federal, state and local government web resources and services.